Kezdőlap
METAR-TAF:

METAR-TAF

Repülőterek :

Lamar Municipal Airport

Lamar, Colorado, Amerikai Egyesült Államok

földrajzi szélesség: 38-04-21N, földrajzi hosszúság: 102-41-12W, magasság: 1128 m

Jelenlegi meteorológiai megfigyelések

A jelentés 36 perccel ezelõtt készült, 05:53 UTC
Déli szél 12 kt
Hőmérséklet 25°C
Páratartalom 47%
Légköri nyomás 1015 hPa
Látótávolság: 16.1 km
Derült ég

METAR: KLAA 240553Z AUTO 19012KT 10SM CLR 25/13 A2996 RMK AO2 SLP083 T02500133 10344 20250 50006

Idő: 00:29 (06:29 UTC)


TAF: hiányzik

Meteorológiai megfigyelések és előrejelzések több, mint 4000 repülőtéren (METAR és TAF jelentéseket).

A térképen piros és sárga pontok jelzik az elérhető meteorológiai állomásokat.

Mozgassa az egeret a pont fölött, hogy megjelenjen az állomás neve.

Azután kattintson az időjárási megfigyelések és előrejelzések megtekintéséhez.

A térkép megváltoztatása: kattintson a fekete keresztel jelölt zöld gombra ráközelítéshez, a vonallal jelölt zöld gombra távolításhoz, vagy a zöld nyilakra a szomszédos térképek eléréséhez.


METAR-TAF: